Flag for U.S.A. Weather past 2 weeks in Fresno, California, U.S.A.

Now
80 °F

Passing clouds.


Feels Like: 81 °F
Forecast: 64 / 89 °F
Wind: 16 mph from Northwest

Location: Fresno Air Terminal

Current Time: Aug 29, 2015 at 11:10:30 PM

Latest Report: Aug 29, 2015 at 9:53 PM


Visibility: 10 mi

Pressure: 29.88 "Hg

Humidity: 49%

Dew point: 59 °F

Location of FresnoLocation

Historic Weather in Fresno — Graph

°F

Fresno temperature yesterday

Maximum temperature yesterday: 105 °F (at 4:53 PM)
Minimum temperature yesterday: 73 °F (at 5:53 AM)
Average temperature yesterday: 89 °F

Past Weeks' High & Low Weather Summary

 TemperatureHumidityPressure
High107 °F (Aug 17, 4:53 PM)76% (Aug 21, 5:53 AM)30.02 "Hg (Aug 21, 5:53 AM)
Low64 °F (Aug 20, 5:53 AM)10% (Aug 16, 2:53 PM)29.72 "Hg (Aug 17, 5:53 PM)
Average84 °F35%29.86 "Hg
* Reported Aug 14 9:53 PM — Aug 29 9:53 PM, Fresno, Weather by CustomWeather, © 2015

Note: Actual official high and low records may vary slightly from our data, if they occured in-between our weather recording intervals... More about our weather records

Advertising

Fresno weather history for previous 24 hours

 ConditionsComfort  
Time TempWeatherWind HumidityBarometerVisibility
9:53 PM
Sat, Aug 29
80 °FPassing clouds.16 mph49%29.88 "Hg10 mi
8:53 PM83 °FPartly cloudy.22 mph51%29.87 "Hg10 mi
7:53 PM87 °FPartly sunny.16 mph39%29.85 "Hg10 mi
6:53 PM91 °FPartly sunny.12 mph26%29.85 "Hg10 mi
5:53 PM92 °FPartly sunny.10 mph27%29.85 "Hg10 mi
4:53 PM94 °FBroken clouds.10 mph26%29.86 "Hg10 mi
3:53 PM94 °FBroken clouds.10 mph24%29.88 "Hg10 mi
2:53 PM94 °FPartly sunny.9 mph25%29.89 "Hg10 mi
1:53 PM92 °FPartly sunny.8 mph26%29.91 "Hg10 mi
12:53 PM91 °FPartly sunny.9 mph26%29.93 "Hg10 mi
11:53 AM89 °FPartly sunny.9 mph29%29.94 "Hg10 mi
10:53 AM86 °FBroken clouds.10 mph35%29.95 "Hg10 mi
9:53 AM83 °FBroken clouds.14 mph40%29.94 "Hg10 mi
8:53 AM79 °FBroken clouds.14 mph47%29.93 "Hg10 mi
7:53 AM75 °FBroken clouds.10 mph54%29.92 "Hg10 mi
6:53 AM72 °FPartly cloudy.13 mph57%29.90 "Hg10 mi
5:53 AM73 °FPassing clouds.9 mph53%29.88 "Hg10 mi
4:53 AM75 °FPassing clouds.8 mph47%29.88 "Hg10 mi
3:53 AM76 °FPassing clouds.8 mph45%29.87 "Hg10 mi
2:53 AM78 °FPassing clouds.9 mph40%29.85 "Hg10 mi
1:53 AM79 °FPassing clouds.7 mph39%29.84 "Hg10 mi
11:53 PM
Fri, Aug 28
84 °FOvercast.10 mph32%29.83 "Hg10 mi
Weather by CustomWeather, © 2015

See weather overviewHow to use our weather pages